Home   Weather   Dornbirn   Past weeks

Flag for Austria Past Weather in Dornbirn, Vorarlberg, Austria — Yesterday and Last 2 Weeks

Now
49 °F

Cool.


Feels Like: 49 °F
Forecast: 29 / 39 °F
Wind: 1 mph from North

Location: Bregenz

Current Time: Feb 24, 2017 at 2:45:23 am

Latest Report: Feb 24, 2017 at 1:00 am


Visibility: N/A

Pressure: 29.70 "Hg

Humidity: 73%

Dew Point: 40 °F

Location of DornbirnLocation

Past Weather in Dornbirn — Graph

°F

Dornbirn Temperature Yesterday

Maximum temperature yesterday: 66 °F (at 5:00 pm)
Minimum temperature yesterday: 40 °F (at 4:00 am)
Average temperature yesterday: 52 °F

High & Low Weather Summary for the Past Weeks

 TemperatureHumidityPressure
High66 °F (Feb 23, 5:00 pm)100% (Feb 12, 7:00 am)30.67 "Hg (Feb 12, 7:00 am)
Low26 °F (Feb 15, 8:00 am)24% (Feb 23, 5:00 pm)29.56 "Hg (Feb 23, 5:00 pm)
Average39 °F83%30.27 "Hg
* Reported Feb 9 1:00 am — Feb 24 1:00 am, Dornbirn, Weather by CustomWeather, © 2017

Note: Actual official high and low records may vary slightly from our data, if they occured in-between our weather recording intervals... More about our weather records

Advertising

Dornbirn Weather History for the Previous 24 Hours

Scroll right to see more
 ConditionsComfort  
Time TempWeatherWind HumidityBarometerVisibility
1:00 am
Fri, Feb 24
49 °FCool.1 mph73%29.70 "HgN/A
12:00 am54 °FFog.1 mph57%29.67 "HgN/A
11:00 pm
Thu, Feb 23
50 °FCool.1 mph66%29.68 "HgN/A
10:00 pm55 °FCool.1 mph45%29.65 "HgN/A
9:00 pm59 °FRefreshingly cool.3 mph30%29.61 "HgN/A
8:00 pm61 °FRefreshingly cool.5 mph27%29.60 "HgN/A
7:00 pm62 °FRefreshingly cool.3 mph26%29.59 "HgN/A
6:00 pm63 °FMild.3 mph26%29.58 "HgN/A
5:00 pm66 °FMild.3 mph24%29.56 "HgN/A
4:00 pm61 °FRefreshingly cool.2 mph42%29.60 "HgN/A
3:00 pm61 °FRefreshingly cool.1 mph39%29.63 "HgN/A
2:00 pm60 °FRefreshingly cool.1 mph35%29.68 "HgN/A
1:00 pm58 °FOvercast.2 mph38%29.73 "Hg12 mi
12:00 pm55 °FCool.1 mph47%29.78 "HgN/A
11:00 am54 °FCool.1 mph48%29.80 "HgN/A
10:00 am51 °FScattered clouds.3 mph52%29.84 "Hg16 mi
9:00 am47 °FCool.5 mph60%29.87 "HgN/A
8:00 am45 °FQuite cool.5 mph71%29.90 "HgN/A
7:00 am44 °FPassing clouds.5 mph79%29.93 "Hg12 mi
6:00 am44 °FQuite cool.3 mph83%29.95 "HgN/A
5:00 am40 °FQuite cool.3 mph89%29.97 "HgN/A
4:00 am40 °FChilly.2 mph92%29.98 "HgN/A
3:00 am41 °FQuite cool.2 mph92%30.00 "HgN/A
2:00 am42 °FQuite cool.1 mph89%30.01 "HgN/A
Weather by CustomWeather, © 2017

See weather overviewHow to use our weather pages